St. Charles, IL

6:16 AM CST on December 13, 2017 (GMT -0600)
Saint Charles County Smartt

Weather History for KSET - May, 2014

Change the Weather History Date:

Sunday, May 25, 2014

  Actual Average (KSTL) Record (KSTL)
Temperature  
Mean Temperature 69 °F -  
Max Temperature 77 °F 77 °F 93 °F (1953)
Min Temperature 63 °F 57 °F 38 °F (1925)
Cooling Degree Days 4    
Growing Degree Days 19 (Base 50)    
Moisture  
Dew Point 62 °F    
Average Humidity 83    
Maximum Humidity 97    
Minimum Humidity 61    
Precipitation  
Precipitation 0.60 in - - ()
Sea Level Pressure  
Sea Level Pressure 30.07 in    
Wind  
Wind Speed 8 mph (East)    
Max Wind Speed 15 mph    
Max Gust Speed -    
Visibility 8 miles    
Events Rain , Thunderstorm    
Averages and records for this station are not official NWS values.
T = Trace of Precipitation, MM = Missing Value Source: NWS Daily Summary

Daily Weather History Graph

Daily Weather History Graph

Search for Another Location

Airport or City:

Trip Planner

Search our weather history database for the weather conditions in past years. The results will help you decide how hot, cold, wet, or windy it might be!

Date:

Astronomy

May. 25, 2014 Rise Set
Actual Time 5:41 AM CDT 8:16 PM CDT
Civil Twilight 5:10 AM CDT 8:47 PM CDT
Nautical Twilight 4:32 AM CDT 9:25 PM CDT
Astronomical Twilight 3:49 AM CDT 10:08 PM CDT
Moon 3:44 AM CDT (5/25) 5:18 PM CDT (5/25)
Length of Visible Light 15h 36m
Length of Day
14h 34m
Waning Crescent, 10% of the Moon is Illuminated
May 25
Waning Crescent
May 28
New
Jun 5
First Quarter
Jun 12
Full
Jun 19
Last Quarter

Hourly Weather History & Observations

Time (CDT) Temp. Dew Point Humidity Pressure Visibility Wind Dir Wind Speed Gust Speed Precip Events Conditions
1:54 AM 69.1 °F 55.0 °F 61% 30.05 in 10.0 mi ESE 6.9 mph - N/A   Overcast
2:54 AM 66.9 °F 55.9 °F 68% 30.04 in 10.0 mi East 5.8 mph - N/A   Overcast
3:54 AM 66.9 °F 55.9 °F 68% 30.05 in 10.0 mi East 9.2 mph - N/A   Mostly Cloudy
4:54 AM 66.9 °F 55.9 °F 68% 30.06 in 10.0 mi East 6.9 mph - N/A   Overcast
5:54 AM 64.0 °F 59.0 °F 84% 30.06 in 10.0 mi ESE 5.8 mph - 0.09 in   Overcast
6:54 AM 64.9 °F 59.0 °F 81% 30.07 in 10.0 mi East 5.8 mph - N/A   Overcast
7:29 AM 66.0 °F 59.0 °F 78% 30.10 in 10.0 mi East 8.1 mph - 0.00 in Rain , Thunderstorm Light Thunderstorms and Rain
7:52 AM 64.4 °F 60.8 °F 88% 30.13 in 3.0 mi NE 3.5 mph - 0.04 in Rain , Thunderstorm Rain
7:54 AM 64.9 °F 60.1 °F 84% 30.12 in 3.0 mi NE 3.5 mph - 0.04 in Rain , Thunderstorm Rain
8:16 AM 63.0 °F 60.1 °F 90% 30.13 in 4.0 mi East 11.5 mph - 0.05 in Rain , Thunderstorm Light Thunderstorms and Rain
8:31 AM 63.0 °F 60.1 °F 90% 30.12 in 1.8 mi ESE 11.5 mph - 0.13 in Rain , Thunderstorm Heavy Thunderstorms and Rain
8:43 AM 63.0 °F 61.0 °F 93% 30.12 in 2.0 mi East 11.5 mph - 0.20 in Rain Rain
8:54 AM 63.0 °F 61.0 °F 93% 30.12 in 2.5 mi ENE 6.9 mph - 0.25 in Rain Rain
9:05 AM 63.0 °F 61.0 °F 93% 30.13 in 3.0 mi ENE 6.9 mph - 0.03 in Rain Rain
10:03 AM 63.0 °F 62.1 °F 97% 30.13 in 3.0 mi ESE 6.9 mph - 0.02 in Rain Rain
10:54 AM 64.0 °F 61.0 °F 90% 30.11 in 4.0 mi East 12.7 mph - 0.19 in Rain Light Rain
11:54 AM 64.9 °F 62.1 °F 90% 30.09 in 9.0 mi ESE 15.0 mph - 0.03 in Rain Light Rain
12:29 PM 64.9 °F 63.0 °F 93% 30.10 in 9.0 mi ESE 11.5 mph - 0.00 in Rain Light Rain
12:54 PM 66.0 °F 63.0 °F 90% 30.09 in 9.0 mi ESE 8.1 mph - 0.00 in   Overcast
1:54 PM 68.0 °F 63.0 °F 84% 30.07 in 10.0 mi SE 8.1 mph - N/A   Mostly Cloudy
2:54 PM 71.1 °F 64.0 °F 78% 30.06 in 10.0 mi ENE 4.6 mph - N/A   Clear
3:54 PM 73.9 °F 64.0 °F 71% 30.04 in 10.0 mi East 11.5 mph - N/A   Clear
4:54 PM 75.9 °F 64.9 °F 69% 30.02 in 10.0 mi East 8.1 mph - N/A   Clear
5:54 PM 75.9 °F 66.0 °F 71% 30.01 in 10.0 mi ESE 10.4 mph - N/A   Clear
6:54 PM 75.9 °F 66.9 °F 74% 29.99 in 10.0 mi ESE 9.2 mph - N/A   Clear
7:54 PM 73.9 °F 66.9 °F 79% 30.00 in 10.0 mi ESE 6.9 mph - N/A   Clear
8:54 PM 70.0 °F 66.9 °F 90% 30.00 in 10.0 mi East 5.8 mph - N/A   Clear
9:54 PM 70.0 °F 64.9 °F 84% 30.01 in 10.0 mi ENE 4.6 mph - N/A   Clear
10:54 PM 68.0 °F 64.0 °F 87% 30.01 in 10.0 mi East 4.6 mph - N/A   Clear
11:54 PM 66.9 °F 64.0 °F 90% 30.01 in 10.0 mi East 5.8 mph - N/A   Clear